This is the latest recevied weather packets stored in our database for station/object wb2ifs-13. If no packets are shown the sender has not sent any weather packets the latest 10 day(s).
| Time | Temp. | Humidity | Pressure | Rain* | Wind** | Luminosity | Snow |
|---|---|---|---|---|---|---|---|
| 1787958003 | 26.11° C | 85% | 1017.5 hPa | 0 mm | - | - | - |
| 1787957103 | 26.67° C | 84% | 1017.4 hPa | 0 mm | - | - | - |
| 1787956202 | 27.22° C | 82% | 1017.4 hPa | 0 mm | - | - | - |
| 1787955303 | 27.22° C | 81% | 1017.4 hPa | 0 mm | - | - | - |
| 1787954403 | 27.22° C | 81% | 1017.4 hPa | 0 mm | - | - | - |
| 1787953503 | 27.22° C | 82% | 1017.3 hPa | 0 mm | - | - | - |
| 1787952602 | 27.22° C | 81% | 1017.1 hPa | 0 mm | - | - | - |
| 1787951702 | 27.22° C | 81% | 1017 hPa | 0 mm | - | - | - |
| 1787950803 | 28.33° C | 78% | 1017 hPa | 0 mm | - | - | - |
| 1787949902 | 30° C | 72% | 1016.9 hPa | 0 mm | - | - | - |
| 1787949002 | 30° C | 73% | 1016.7 hPa | 0 mm | - | - | - |
| 1787948102 | 30.56° C | 69% | 1016.6 hPa | 0 mm | - | - | - |
| 1787947203 | 30° C | 74% | 1016.4 hPa | 0 mm | - | - | - |
| 1787946302 | 29.44° C | 76% | 1016.6 hPa | 0 mm | - | - | - |
| 1787945403 | 28.89° C | 77% | 1016.7 hPa | 0 mm | - | - | - |
| 1787944513 | 30° C | 71% | 1016.7 hPa | 0 mm | - | - | - |
| 1787943603 | 29.44° C | 71% | 1016.7 hPa | 0 mm | - | - | - |
| 1787942702 | 30° C | 72% | 1016.7 hPa | 0 mm | - | - | - |
| 1787941802 | 30° C | 72% | 1016.8 hPa | 0 mm | - | - | - |
| 1787940914 | 29.44° C | 75% | 1016.8 hPa | 0 mm | - | - | - |
| 1787940003 | 28.89° C | 77% | 1017 hPa | 0 mm | - | - | - |
| 1787939102 | 30° C | 72% | 1017 hPa | 0 mm | - | - | - |
| 1787938202 | 30.56° C | 70% | 1016.9 hPa | 0 mm | - | - | - |
| 1787937303 | 30° C | 72% | 1017.1 hPa | 0 mm | - | - | - |
| 1787936403 | 29.44° C | 74% | 1017.3 hPa | 0 mm | - | - | - |
* Rain latest hour (hover to see other rain measurements)
** Current wind speed in m/s (hover to see current wind gust speed)